Regional Weather Roundup
Issued by NWS

Home | Current Version | Previous Version | Text Only | Print | Product List | Glossary Off
Versions: 1 2 3 4 5 6 7 8 9 10 11 12 13 14 15 16 17 18 19 20 21 22 23 24 25 26 27 28 29 30 31 32 33 34 35 36 37 38 39 40 41 42 43 44 45 46 47 48 49 50

000
ASUS43 KLOT 230603
RWRIL

ILLINOIS REGIONAL WEATHER ROUNDUP
NATIONAL WEATHER SERVICE CHICAGO/ROMEOVILLE IL
100 AM CDT WED AUG 23 2017

NOTE: "FAIR" INDICATES FEW OR NO CLOUDS BELOW 12,000 FEET WITH NO
SIGNIFICANT WEATHER AND/OR OBSTRUCTIONS TO VISIBILITY.

* THESE STATIONS ARE NOT UNDER NWS QUALITY CONTROL. THEY ALSO MAY NOT
  REPORT WEATHER SUCH AS PRECIPITATION OR FOG.

ILZ001-002-007-009-015-016-024-230700-
NORTHWEST ILLINOIS

CITY           SKY/WX    TMP DP  RH WIND       PRES   REMARKS
MOLINE         CLEAR     57  52  83 CALM      30.08R
6HR MIN TEMP:  57; 6HR MAX TEMP:  74;

STERLING*      CLEAR     57  54  89 W5        30.06S
SAVANNA*       CLEAR     61  54  76 NW5       30.06S
$$

ILZ003-004-008-010-011-017-018-230700-
NORTH CENTRAL ILLINOIS

CITY           SKY/WX    TMP DP  RH WIND       PRES   REMARKS
ROCKFORD       CLEAR     56  51  84 S5        30.05S
6HR MIN TEMP:  56; 6HR MAX TEMP:  72;

FREEPORT*      CLEAR     56  51  84 W6        30.07S
ROCHELLE*      CLEAR     52  50  95 SW3       30.06R
DE KALB*       CLEAR     57  52  82 W6        30.05S
$$

ILZ005-006-012>014-019>023-230700-
NORTHEAST ILLINOIS

CITY           SKY/WX    TMP DP  RH WIND       PRES   REMARKS
CHICAGO-OHARE  PTCLDY    64  51  62 W8        30.01S
6HR MIN TEMP:  64; 6HR MAX TEMP:  76;

CHICAGO-MIDWAY CLEAR     65  51  60 NW6       30.02R
6HR MIN TEMP:  65; 6HR MAX TEMP:  76;

AURORA         CLEAR     54  53  97 W3        30.04S
6HR MIN TEMP:  54; 6HR MAX TEMP:  70;

LANSING*       CLEAR     63  50  63 NW6       30.02R
JOLIET*        CLEAR     62  55  77 CALM      30.03S
WAUKEGAN       CLEAR     61  52  72 VRB3      30.00R
6HR MIN TEMP:  60; 6HR MAX TEMP:  71;

DUPAGE AIRPORT CLEAR     59  53  80 W6        30.02S
6HR MIN TEMP:  59; 6HR MAX TEMP:  73;

WHEELING       CLEAR     63  53  70 W6        30.03R
6HR MIN TEMP:  63; 6HR MAX TEMP:  74;

MORRIS*        CLEAR     54  52  93 NW6       30.03S
NORTHERLY ISL    N/A     68  50  52 W6          N/A
$$

LMZ740>746-230700-
SOUTHERN LAKE MICHIGAN

STATION/POSITION SKY/WX   TEMP    WIND        PRES    VSBY  WAVE
                          AIR SEA DIR/SP/G                  HT/PER
                          (F)     (DEG/KT/KT) (MB)    (MI)  (FT/S)
SOUTHERN BUOY              70 71  310/ 17/ 21 1014.2          4/ 6
WILMETTE HARBOR            69 73  280/ 14/ 17   N/A           3/ 4
HARRISON CRIB              70     290/ 14/ 16   N/A
CALUMET HARBOR             67     280/  3/  6 1015.7R
BURNS HARBOR               72     320/ 14/ 20 1016.3R
MICHIGAN CITY              71     300/ 19/ 20   N/A
MICHIGAN CITY 6N           72 74  320/ 16/ 19   N/A           5/ 5
ST. JOSEPH                 72 73  330/ 16/ 19 1015.2R         5/ 6
$$

ILZ025>027-034>036-040-047-049-050-058-095>099-230700-
WEST-CENTRAL ILLINOIS

CITY           SKY/WX    TMP DP  RH WIND       PRES   REMARKS
QUINCY         CLEAR     59  54  83 NW5       30.11S
GALESBURG*     CLEAR     54  52  92 CALM      30.10R
MACOMB*        CLEAR     55  54  94 W5        30.12R
$$

ILZ028>032-037-038-041>044-048-051>054-059>061-230700-
CENTRAL ILLINOIS

CITY           SKY/WX    TMP DP  RH WIND       PRES   REMARKS
BLOOMINGTON    CLEAR     61  53  75 NW6       30.07S
DECATUR        CLEAR     64  55  72 NW8       30.07R
PEORIA         CLEAR     61  55  81 CALM      30.08R
6HR MIN TEMP:  61; 6HR MAX TEMP:  74;

LACON*         CLEAR     56  54  92 CALM      30.06R
LINCOLN*       CLEAR     62  56  83 CALM      30.07S
SPRINGFIELD    CLEAR     60  58  92 W5        30.08R
6HR MIN TEMP:  60; 6HR MAX TEMP:  76;

TAYLORVILLE    NOT AVBL
$$

ILZ033-039-045-046-055>057-062-063-230700-
EAST-CENTRAL ILLINOIS

CITY           SKY/WX    TMP DP  RH WIND       PRES   REMARKS
CHAMPAIGN      CLEAR     59  56  89 NW6       30.05S
RANTOUL*       CLEAR     61  58  88 NW8       30.05S
MATTOON        CLEAR     60  59  96 NW7       30.04S
PARIS*         CLEAR     57  56  96 NW5       30.05S
$$

ILZ079-100>102-230700-
SOUTHWEST ILLINOIS

CITY           SKY/WX    TMP DP  RH WIND       PRES   REMARKS
ALTON          CLEAR     62  59  88 NW3       30.09S
BELLEVILLE     CLEAR     65  57  75 N6        30.08S
CAHOKIA*       CLEAR     68  57  68 N7        30.08R
SPARTA*        CLEAR     66  60  79 N3        30.08R
$$

ILZ064>066-069>071-074>076-080>082-084>086-088>090-092>094-230700-
SOUTH-CENTRAL ILLINOIS

CITY           SKY/WX    TMP DP  RH WIND       PRES   REMARKS
CARBONDALE     PTCLDY    66  64  93 CALM      30.06R
6HR MIN TEMP:  66; 6HR MAX TEMP:  78;

EFFINGHAM*     CLEAR     62  61  96 W3        30.07R
MARION         CLEAR     66  66 100 CALM      30.06R
MT. VERNON       N/A     62  60  93 CALM      30.06R
CENTRALIA*     CLEAR     63  60  93 N5        30.05S
SALEM*         CLEAR     63  58  85 N3        30.06S
METROPOLIS*    CLEAR     70  67  90 N5        30.04S
$$

ILZ067-068-072-073-078-083-087-091-230700-
SOUTHEAST ILLINOIS

CITY           SKY/WX    TMP DP  RH WIND       PRES   REMARKS
LAWRENCEVILLE  CLEAR     63  61  93 NW7       30.03R
FLORA*         CLEAR     65  61  86 NW3       30.05R
FAIRFIELD*     CLEAR     65  61  86 CALM      30.04S
HARRISBURG*    CLEAR     68  64  85 N5        30.04S
ROBINSON*      CLEAR     60  58  93 NW3       30.05R
CARMI*         CLEAR     65  63  93 NW6       30.03S
$$

ABBREVIATIONS USED IN REMARKS
   TC - TEMPERATURE IN CELSIUS
  WCI - WIND CHILL INDEX
   HX - HEAT INDEX
  VSB - VISIBILITY
$$




USA.gov is the U.S. government's official web portal to all federal, state and local government web resources and services.